Tracking 29510 objects as of 16-Sep-2024
HD Live streaming from Space Station
objects crossing your sky now

STARLINK-3266

Track STARLINK-3266 now!
10-day predictions
STARLINK-3266 is classified as:


NORAD ID: 50195
Int'l Code: 2021-125AR
Perigee: 545.9 km
Apogee: 547.8 km
Inclination: 53.2 °
Period: 95.4 minutes
Semi major axis: 6917 km
RCS: Unknown
Launch date: December 18, 2021
Source: United States (US)
Launch site: AIR FORCE WESTERN TEST RANGE (AFWTR)
Your satellite tracking list
Your tracking list is empty




NASA's NSSDC Master Catalog

Two Line Element Set (TLE):
1 50195U 21125AR  24260.38066749  .00002051  00000-0  14687-3 0  9995
2 50195  53.2138 140.1724 0001380  79.0577 281.0570 15.08844686155318
Source of the keplerian elements: AFSPC